User: anonymous   Login
Location: Stonelick Lake State Park
(39.2170°N, 84.0850°W)
Time: 11:53:16
(UTC-05:00)
Language:

Lacrosse 5 - Orbit

View from above orbital plane
View from above orbital plane
View from above satellite
View from above satellite

Ground track
Ground track

The orbit data is extracted from the following two-line orbital elements,

1 28646U 05016A   17029.79772640 0.00000000  00000-0  00000-0 0    02
2 28646  57.0130 282.6118 0003000  58.8031 301.1969 14.51758432    09
Epoch (UTC): 29 January 2017 19:08:43
Eccentricity: 0.0003000
inclination: 57.0130°
perigee height: 718 km
apogee height: 722 km
right ascension of ascending node: 282.6118°
argument of perigee: 58.8031°
revolutions per day: 14.51758432
mean anomaly at epoch: 301.1969°
orbit number at epoch: 0

The dashed part of the orbit path shows where the satellite is in the earth's shadow,  

DLR